{"data":{"norad_id":68368,"intl_designator":"2026-061J","name":"RASSVET-3 9","alt_names":[],"object_type":"PAYLOAD","status":"ACTIVE","operator":null,"country":"CIS","launch_date":"2026-03-23","launch_site_code":"PLMSC","launch_vehicle":null,"mission":null,"orbit_class":"UNKNOWN","rcs_meters":null,"size_class":null,"mass_kg":null,"dimensions":null,"purposes":[],"wikipedia_slug":null,"has_3d_model":false,"image_url":null,"decayed_at":null,"tle_current":{"epoch":"2026-09-18T03:07:27.621120Z","epoch_age_seconds":277006,"freshness":"STALE","line1":"1 68368U 26061J   26261.13018080  .00002783  00000+0  13389-3 0  9990","line2":"2 68368  82.2895 277.4906 0003202  35.2067 324.9377 15.18402200 27661","mean_motion":15.184022,"eccentricity":0.0003202,"inclination_deg":82.2895,"raan_deg":277.4906,"arg_perigee_deg":35.2067,"mean_anomaly_deg":324.9377,"bstar":0.00013389,"rev_number":2766,"period_min":94.836532771093,"perigee_km":508.46326699441,"apogee_km":512.87485839696,"semimajor_km":6888.8060626957,"source":"CELESTRAK","updated_at":"2026-09-20T09:00:24.163796Z"}}}